User: anonymous   Login
Location: Bergnershof
(48.9468°N, 10.9431°E)
Time: 02:43:04
(UTC+00:00)
Language:

CZ-4 R/B - Orbit

View from above orbital plane
View from above orbital plane
View from above satellite
View from above satellite

Ground track
Ground track

The orbit data is extracted from the following two-line orbital elements,

1 29507U 06046C   21127.55523388  .00001114  00000-0  90486-4 0  9999
2 29507  97.7322 153.6571 0047807 152.2510 208.1280 15.00823952793976
Epoch (UTC): 07 May 2021 13:19:32
Eccentricity: 0.0047807
inclination: 97.7322°
perigee height: 531 km
apogee height: 597 km
right ascension of ascending node: 153.6571°
argument of perigee: 152.2510°
revolutions per day: 15.00823952
mean anomaly at epoch: 208.1280°
orbit number at epoch: 79397

The dashed part of the orbit path shows where the satellite is in the earth's shadow,  

DLR